SCP
0 0 0 0 0 0 0 0 0 0 0 0 0 0 0 0 0 0 0 0 0 0 0 0 0 0 0 0 0 0 0 0 0 0 0 0 0 0 0 0 0 0 0 0 0 0 0 0 0
0 0 0 0 0 0 0 0 0 0 0 0 0 0 0 0 0 0 0 0 0 0 0 0 0 0 0 0 0 0 0 0 0 0 0 0 0 0 0 0 0 0 0 0 0 0 0 0 0
0 0 0 0 0 0 0 0 0 0 0 0 0 0 0 0 0 0 0 0 0 0 0 0 0 0 0 0 0 0 0 0 0 0 0 0 0 0 0 0 0 0 0 0 0 0 0 0 0
0 0 0 0 0 0 0 0 0 0 0 0 0 0 0 0 0 0 0 0 0 0 0 0 0 0 0 0 0 0 0 0 0 0 0 0 0 0 0 0 0 0 0 0 0 0 0 0 0
0 0 0 0 0 0 0 0 0 0 0 0 0 0 0 0 0 0 0 0 0 0 0 0 0 0 0 0 0 0 0 0 0 0 0 0 0 0 0 0 0 0 0 0 0 0 0 0 0
0 0 0 0 0 0 0 0 0 0 0 0 0 0 0 0 0 0 0 0 0 0 0 0 0 0 0 0 0 0 0 0 0 0 0 0 0 0 0 0 0 0 0 0 0 0 0 0 0
0 0 0 0 0 0 0 0 0 0 0 0 0 0 0 0 0 0 0 0 0 0 0 0 0 0 0 0 0 0 0 0 0 0 0 0 0 0 0 0 0 0 0 0 0 0 0 0 0
0 0 0 0 0 0 0 0 0 0 0 0 0 0 0 0 0 0 0 0 0 0 0 0 0 0 0 0 0 0 0 0 0 0 0 0 0 0 0 0 0 0 0 0 0 0 0 0 0
0 0 0 0 0 0 0 0 0 0 0 0 0 0 0 0 0 0 0 0 0 0 0 0 0 0 0 0 0 0 0 0 0 0 0 0 0 0 0 0 0 0 0 0 0 0 0 0 0
0 0 0 0 0 0 0 0 0 0 0 0 0 0 0 0 0 0 0 0 0 0 0 0 0 0 0 0 0 0 0 0 0 0 0 0 0 0 0 0 0 0 0 0 0 0 0 0 0
0 0 0 0 0 0 0 0 0 0 0 0 0 0 0 0 0 0 0 0 0 0 0 0 0 0 0 0 0 0 0 0 0 0 0 -0 0 0 0 0 -0 -0 -0 0 0 0 0 0 0
0 0 0 0 0 0 0 0 0 0 0 0 0 0 0 0 0 0 0 0 0 0 0 0 0 0 0 0 0 0 0 0 0 -0 -0 -0 -0 -0 0 0 -0 -0 -0 -0 0 0 0 0 0
0 0 0 0 0 0 0 0 0 0 0 0 0 0 0 0 0 0 0 0 0 0 0 0 0 0 0 0 0 0 0 0 0 -0 -0 -0 -0 -0 0 -0 -0 -0 -0 -0 0 0 0 0 0
0 0 0 0 0 0 0 0 0 0 0 0 0 0 0 0 0 0 0 0 0 0 0 0 0 0 0 0 0 0 0 0 0 0 -0 -0 -0 -0 -0 -0 -0 -0 -0 -0 -0 0 0 0 0
0 0 0 0 0 0 0 0 0 0 0 0 0 0 0 0 0 0 0 0 0 0 0 0 0 0 0 0 0 0 0 0 0 0 -0 -0 -0 -0 -0 -0 -0 -0 -0 -0 0 0 0 0 0
0 0 0 0 0 0 0 0 0 0 0 0 0 0 0 0 0 0 0 0 0 0 0 0 0 0 0 0 0 0 0 0 0 0 -0 -0 -0 -0 -0 0 0 0 0 0 0 0 0 0 0
0 0 0 0 0 0 0 0 0 0 0 0 0 0 0 0 0 0 0 0 0 0 0 0 0 0 0 0 0 0 0 0 0 0 -0 -0 -0 -0 -0 0 0 0 0 0 0 0 0 0 0
0 0 0 0 0 0 0 0 0 0 0 0 0 0 0 0 0 0 0 0 0 0 0 0 0 0 0 0 0 0 0 0 0 0 -0 -0 -0 -0 -0 0 0 0 0 0 0 0 0 0 0
0 0 0 0 0 0 0 0 0 0 0 0 0 0 0 0 0 0 0 0 0 0 0 0 0 0 0 0 0 0 0 0 0 0 0 0 -0 -0 -0 0 0 0 0 0 0 0 0 0 0
0 0 0 0 0 0 0 0 0 0 0 0 0 0 0 0 0 0 0 0 0 0 0 0 0 0 0 0 0 0 0 0 0 0 0 0 0 -0 -0 -0 -0 -0 -0 0 0 0 0 0 0
0 0 0 0 0 0 0 0 0 0 0 0 0 0 0 0 0 0 0 0 0 0 0 0 0 0 0 0 0 0 0 0 0 0 0 0 0 0 0 -0 -0 -0 0 0 0 0 0 0 0
0 0 0 0 0 0 0 0 0 0 0 0 0 0 0 0 0 0 0 0 0 0 0 0 0 0 0 0 0 0 0 0 0 0 0 0 0 0 0 0 0 0 0 0 0 0 0 0 0
0 0 0 0 0 0 0 0 0 0 0 0 0 0 0 0 0 0 0 0 0 0 0 0 0 0 0 0 0 0 0 0 0 0 0 0 0 0 0 0 0 0 0 0 0 0 0 0 0
0 0 0 0 0 0 0 0 0 0 0 0 0 0 0 0 0 0 0 0 0 0 0 0 0 0 0 0 0 0 0 0 0 0 0 0 0 0 0 0 0 0 0 0 0 0 0 0 0
0 0 0 0 0 0 0 0 0 0 0 0 0 0 0 0 0 0 0 0 0 0 0 0 0 0 0 0 0 0 0 0 0 0 0 0 0 0 0 0 0 0 0 0 0 0 0 0 0
0 0 0 0 0 0 0 0 0 0 0 0 0 0 0 0 0 0 0 0 0 0 0 0 0 0 0 0 0 0 0 0 0 0 0 0 0 0 0 0 0 0 0 0 0 0 0 0 0
0 0 0 0 0 0 0 0 0 0 0 0 0 0 0 0 0 0 0 0 0 0 0 0 0 0 0 0 0 0 0 0 0 0 0 0 0 0 0 0 0 0 0 0 0 0 0 0 0
0 0 0 0 0 0 0 0 0 0 0 0 0 0 0 0 0 0 0 0 0 0 0 0 0 0 0 0 0 0 0 0 0 0 0 0 0 0 0 0 0 0 0 0 0 0 0 0 0
0 0 0 0 0 0 0 0 0 0 0 0 0 0 0 0 0 0 0 0 0 0 0 0 0 0 0 0 0 0 0 0 0 0 0 0 0 0 0 0 0 0 0 0 0 0 0 0 0
0 0 0 0 0 0 0 0 0 0 0 0 0 0 0 0 0 0 0 0 0 0 0 0 0 0 0 0 0 0 0 0 0 0 0 0 0 0 0 0 0 0 0 0 0 0 0 0 0
Wind_Speed
2 1 2 3 3 3 6 5 4 5 5 6 6 5 7 7 6 7 5 5 6 7 8 10 10 10 11 11 11 12 12 12 12 12 12 12 12 12 11 11 11 11 10 10 10 10 10 11 10
0 1 3 3 2 5 6 5 7 7 6 5 6 7 8 9 8 7 6 6 7 8 8 9 11 11 11 11 11 11 12 12 12 12 11 11 11 11 11 11 10 10 10 9 9 10 10 10 10
2 2 2 1 2 4 7 7 8 8 5 3 5 6 6 6 6 6 6 8 8 8 8 11 11 11 11 11 11 11 11 11 11 11 11 11 11 11 11 10 10 10 9 9 9 9 9 9 9
2 2 1 3 9 8 7 7 8 8 6 5 6 8 7 6 4 7 9 9 9 9 9 11 11 10 11 11 11 11 11 10 11 11 11 11 11 11 11 10 10 9 9 9 9 9 9 9 8
1 1 3 7 9 7 7 6 5 6 5 6 6 9 8 6 8 9 9 9 9 9 9 11 10 10 10 10 10 11 11 11 11 11 11 11 11 11 10 10 9 9 8 8 8 8 8 8 8
1 2 5 8 9 8 7 5 6 9 9 8 8 9 8 6 8 9 9 8 9 9 9 9 10 10 10 10 10 10 10 10 10 11 10 10 11 10 10 10 9 8 7 7 7 7 8 8 8
0 2 6 9 9 8 7 6 6 8 9 7 5 8 8 7 7 8 9 9 9 8 8 7 8 9 10 10 10 10 10 10 9 9 10 9 9 9 9 9 9 8 8 7 7 7 8 8 8
1 3 7 7 8 8 7 7 6 6 8 6 4 7 8 8 8 8 8 9 8 8 7 7 7 6 7 9 10 9 9 9 8 9 8 6 6 7 6 7 9 8 8 8 7 7 7 8 8
1 3 6 6 6 8 8 8 6 5 8 6 6 8 11 11 10 9 9 8 8 7 6 6 6 6 6 7 7 6 7 6 4 7 6 2 4 6 5 11 9 8 8 7 7 6 5 4 7
0 4 6 5 6 8 8 7 7 7 9 9 10 11 12 10 10 10 9 9 8 7 6 6 6 6 6 5 4 3 4 4 4 5 5 4 5 5 5 8 7 7 6 6 6 4 2 1 3
3 6 7 7 8 8 8 7 6 7 8 9 12 13 12 10 9 9 8 7 7 6 6 5 6 6 5 4 3 3 3 3 5 6 6 4 4 3 4 3 3 4 3 4 4 1 3 4 4
8 8 7 8 8 7 7 7 7 6 7 9 11 13 11 10 9 8 7 6 6 6 6 5 5 5 5 4 4 3 3 3 4 4 6 4 3 3 4 3 4 3 3 4 4 3 4 4 4
9 9 9 9 8 8 9 8 8 8 8 11 12 12 10 9 9 8 7 6 6 6 6 5 4 4 5 5 3 3 4 4 5 4 4 5 3 4 3 3 3 4 3 3 3 3 5 4 5
9 10 9 9 8 7 8 7 6 7 9 12 12 11 10 8 7 7 6 6 5 6 6 5 5 5 5 4 4 4 4 3 4 4 4 5 4 3 3 4 4 4 4 4 3 5 3 3 4
10 10 9 7 7 6 6 6 6 7 10 11 11 10 9 8 7 6 5 4 5 6 6 6 5 5 5 5 5 4 3 4 4 4 4 5 5 4 4 3 3 3 3 3 4 5 3 4 3
7 7 7 6 4 3 4 5 7 7 9 10 10 9 8 7 6 5 5 4 5 6 6 6 4 4 4 4 4 3 4 4 4 4 4 5 5 5 4 3 3 3 3 3 3 3 3 3 3
5 6 8 7 3 4 3 5 7 6 9 9 9 9 8 7 6 5 5 4 5 6 7 7 6 5 4 4 4 4 4 4 4 4 4 5 5 5 4 4 3 4 3 3 3 3 3 3 3
7 6 6 5 4 5 5 5 7 8 9 10 9 9 8 7 6 5 5 4 5 6 6 7 6 5 5 4 3 3 4 4 4 4 4 6 4 5 5 3 4 4 3 3 3 4 3 3 2
5 5 5 4 3 4 5 5 7 8 9 10 10 9 8 7 6 5 6 6 6 6 6 6 6 5 4 3 2 2 3 3 4 4 5 5 5 5 5 3 4 4 4 4 4 3 4 3 2
5 5 5 5 4 3 4 5 6 8 10 10 10 10 9 8 8 7 7 7 6 6 6 7 6 5 4 2 2 2 3 3 4 3 4 5 5 4 4 4 4 4 3 4 4 3 2 3 2
4 4 4 4 5 4 4 6 8 9 9 9 10 9 9 10 9 9 8 8 7 7 7 6 6 6 4 4 3 3 3 3 3 3 3 4 4 4 4 5 4 4 3 4 4 3 3 2 2
3 2 4 5 5 3 4 3 7 10 11 11 12 11 11 11 10 10 9 9 8 7 7 7 7 6 5 5 4 4 2 3 3 2 3 3 4 4 4 4 4 4 4 4 3 4 2 2 2
3 4 4 4 4 3 5 5 4 9 11 13 14 14 13 12 12 11 10 9 9 8 7 7 7 6 6 4 4 3 3 3 3 3 4 3 4 4 4 4 4 4 4 5 5 4 4 3 3
7 6 5 4 5 4 3 5 2 6 10 12 14 14 14 13 13 11 10 9 8 8 8 7 7 7 6 5 5 4 4 4 4 3 3 3 3 3 4 4 3 4 4 5 4 4 5 4 4
7 6 4 5 5 2 2 5 3 2 5 8 12 14 14 14 13 12 12 11 10 10 9 9 8 7 7 6 5 5 4 4 4 3 3 2 2 2 4 3 3 4 4 4 4 4 4 4 4
7 6 3 2 2 2 4 4 1 1 2 5 8 11 13 14 13 13 13 12 11 11 11 10 9 8 7 6 5 4 5 3 2 2 2 2 2 3 3 3 3 3 3 3 4 3 4 4 4
6 5 3 4 2 3 3 2 2 3 4 6 8 10 12 14 14 14 13 12 12 11 11 11 10 9 8 7 6 5 4 4 3 3 3 2 2 2 3 2 3 3 3 3 3 3 4 4 4
3 3 4 4 3 3 2 3 1 3 4 5 7 10 12 13 13 13 13 12 12 11 10 10 10 9 8 8 6 4 5 4 3 3 3 3 3 2 3 2 3 3 3 2 3 3 3 3 4
6 6 5 3 4 4 2 1 3 1 1 4 6 8 10 12 13 13 12 12 11 11 11 11 10 10 9 8 7 6 5 5 4 4 3 3 3 3 3 3 2 2 2 2 2 3 3 3 3
7 7 8 5 4 4 3 0 3 1 0 2 4 6 9 11 12 12 12 12 11 12 12 11 11 10 9 8 8 7 6 5 5 4 4 4 3 3 3 2 2 2 2 2 2 3 2 3 3
Wind_Direction
165 179 223 235 213 127 88 81 89 103 82 66 64 69 75 52 45 80 92 101 102 105 101 99 88 87 87 86 87 87 86 85 83 78 75 75 73 71 68 64 63 61 58 55 53 51 51 51 54
182 216 232 241 213 123 95 96 96 83 98 101 80 77 77 68 58 86 106 107 105 100 96 89 87 86 85 85 86 86 85 82 81 78 73 71 70 68 65 61 60 60 58 54 50 50 50 50 53
153 259 272 228 91 86 102 106 102 98 99 96 86 67 57 67 72 89 101 112 105 97 95 89 84 82 82 83 83 82 80 79 79 77 74 71 69 67 64 61 59 59 60 59 52 51 52 51 52
222 204 194 108 94 75 94 111 119 118 99 79 95 87 78 57 68 98 110 112 104 99 95 91 88 86 83 83 82 80 77 76 78 76 75 71 69 67 63 60 60 59 60 58 54 55 55 54 52
242 230 132 111 96 91 89 100 125 110 98 94 94 95 86 67 87 104 110 108 104 99 94 95 92 91 85 82 80 80 76 75 75 73 70 66 64 62 60 59 59 59 59 58 57 58 59 55 53
206 196 134 116 107 103 98 105 117 108 103 101 98 98 86 92 103 110 111 106 102 97 95 99 99 93 87 83 81 79 77 74 70 68 65 63 61 57 55 54 56 59 60 60 58 59 62 58 55
92 108 113 119 119 111 101 104 107 112 110 97 103 102 107 107 106 119 118 112 103 99 96 97 102 103 99 86 77 75 72 69 67 65 64 62 60 57 54 54 52 57 58 59 60 65 66 60 58
18 133 125 124 126 110 109 106 98 101 100 99 99 112 122 124 123 122 117 114 108 104 101 98 93 89 91 95 81 71 67 66 68 67 64 67 86 82 67 66 53 52 56 57 60 65 68 67 63
242 146 125 123 125 117 126 119 101 100 108 97 82 94 116 127 131 126 121 117 112 107 101 96 92 86 84 82 89 90 86 75 96 96 82 69 68 72 77 54 50 53 57 59 59 65 74 89 94
89 114 97 99 115 122 124 117 121 130 119 111 108 109 122 131 134 129 126 122 118 113 103 96 90 91 88 82 84 73 75 73 67 70 70 58 58 55 49 88 64 59 65 82 68 73 139 231 97
74 91 102 107 114 122 122 115 121 132 116 121 129 132 135 135 134 129 124 120 118 114 105 96 94 92 89 88 76 74 74 73 68 62 71 59 59 69 54 61 86 74 66 70 86 122 63 64 58
100 93 102 111 116 122 118 118 111 96 96 116 127 133 137 140 136 134 130 128 127 117 108 100 98 101 92 85 81 78 77 72 66 53 51 52 47 42 52 49 46 43 52 49 47 43 65 62 65
102 101 100 109 115 115 112 106 103 94 108 124 130 137 140 140 135 133 131 133 133 128 121 110 104 97 95 88 82 78 69 59 71 48 40 51 48 51 56 59 48 42 40 48 43 43 54 52 53
107 109 109 111 114 118 119 111 110 106 131 134 138 143 143 141 140 137 137 138 134 134 131 124 116 106 96 90 84 73 73 71 59 50 39 48 54 50 51 59 49 43 36 33 36 53 51 53 53
124 121 116 114 122 125 134 116 105 124 144 141 142 143 143 147 151 144 139 137 131 132 131 122 114 109 99 90 79 75 70 66 59 51 43 52 51 50 55 46 50 42 37 42 40 57 51 61 68
142 142 130 120 133 148 189 131 123 143 155 147 147 147 151 155 158 146 143 138 136 139 135 126 128 123 107 97 93 85 71 62 62 57 45 50 54 51 49 47 46 43 39 39 51 42 52 64 59
165 150 138 140 147 166 184 141 142 163 168 158 160 160 161 161 164 155 149 144 143 143 142 137 136 132 115 106 105 86 78 66 61 58 52 48 52 51 59 45 37 43 44 44 46 46 38 61 58
151 150 150 152 147 177 174 155 153 170 180 171 168 170 168 167 169 162 154 146 144 144 144 139 135 135 128 127 111 97 80 72 65 61 58 51 51 52 55 53 47 43 49 45 50 66 60 53 56
149 155 147 130 141 186 177 170 165 171 184 182 179 177 176 173 167 165 161 158 154 151 149 143 145 143 141 128 123 110 95 85 79 65 64 61 54 49 54 47 50 40 51 41 43 60 79 62 46
162 161 148 130 147 202 183 188 177 184 195 196 191 185 181 182 178 173 174 171 166 160 159 154 157 152 145 124 110 98 94 87 76 71 67 55 54 47 45 51 56 55 56 51 44 46 39 60 18
182 193 167 150 150 182 206 197 188 189 199 202 206 199 191 190 189 181 181 179 175 170 166 167 166 159 153 142 126 123 118 128 117 99 76 52 49 55 46 46 45 46 50 54 38 37 37 49 46
163 155 174 177 196 176 224 223 188 189 194 203 205 203 201 194 193 186 185 184 181 175 171 173 169 162 157 155 148 144 140 123 100 91 88 84 65 62 56 51 49 50 49 56 46 46 44 21 46
118 136 163 189 217 222 210 251 175 185 202 204 205 203 202 196 195 190 189 186 182 177 175 174 170 165 163 165 154 166 143 124 122 118 104 93 82 69 64 54 51 51 50 49 46 42 33 32 25
143 155 155 193 225 236 215 244 207 188 211 205 201 201 199 195 193 193 188 184 179 175 174 174 174 169 170 173 170 168 143 142 139 131 111 107 98 82 72 60 56 53 51 50 46 48 50 39 38
193 198 197 197 206 208 149 240 254 191 214 214 202 197 195 192 190 189 187 184 181 179 178 177 178 174 175 179 176 165 159 163 154 145 129 115 101 87 71 62 59 57 51 50 45 49 45 48 40
200 234 265 255 230 155 182 239 223 135 201 211 203 194 191 190 191 189 188 185 183 182 182 183 182 179 178 185 180 175 166 172 151 155 136 121 95 85 79 71 67 63 55 51 49 44 43 40 42
195 221 290 292 276 255 199 220 219 176 189 189 188 187 191 190 191 190 188 186 185 183 184 187 183 180 182 186 181 180 171 164 157 162 144 130 114 104 101 88 86 77 63 49 53 54 49 43 38
263 194 210 244 259 245 220 223 203 157 175 179 183 188 190 189 189 190 188 187 186 184 182 185 185 182 184 184 181 172 178 168 170 161 155 146 132 124 126 114 95 90 81 73 64 60 48 49 51
182 196 219 238 269 279 257 118 55 13 175 196 193 190 190 187 189 188 187 185 184 181 180 182 184 184 183 184 182 176 172 165 167 164 159 153 149 148 141 125 115 102 89 79 79 63 62 45 48
230 222 219 235 225 253 280 8 83 7 308 220 206 192 188 189 188 186 185 182 183 183 183 184 185 185 184 184 182 176 169 166 171 164 160 165 158 153 146 133 124 103 91 78 70 70 62 50 45